Location: Okie-Tex Star Party
(36.8978°N, 102.9520°W)
Time: 01:25:23
(UTC-05:00)

Daily predictions for brighter satellites

Satellite Brightness Start Highest point End
(mag) Time Altitude Azimuth Time Altitude Azimuth Time Altitude Azimuth
Resurs 1-4 Rocket 4.4 04:19:10 10° N 04:20:20 17° N 04:20:20 17° N
CZ-4C R/B 4.2 04:43:06 20° N 04:43:06 20° N 04:45:39 10° NNE
CZ-3 R/B 4.3 04:35:16 36° SSW 04:41:14 41° S 04:51:03 10° ESE
Cosmos 2297 Rocket 4.4 04:45:26 14° NNW 04:45:26 14° NNW 04:46:34 10° N
CZ-2D R/B 4.3 04:48:21 10° N 04:49:27 16° N 04:49:27 16° N
Atlas 2A Centaur Rocket 4.2 04:57:36 43° S 04:57:45 43° SSE 05:18:50 10° ESE
ASTEX 1 4.3 04:59:44 10° NNE 05:04:27 44° E 05:04:46 43° ESE
Cosmos 1140 Rocket 3.8 05:16:48 60° N 05:16:48 60° N 05:21:04 10° NNE
Meteor 1-5 Rocket 4.3 05:11:52 10° N 05:17:08 69° NNW 05:17:08 69° NNW
Cosmos 1603 3.6 05:15:38 10° NNW 05:21:19 90° ENE 05:27:00 10° SSE
CZ-4B R/B 4.1 05:18:12 10° NNE 05:22:03 38° E 05:22:09 38° ESE
Cosmos 2180 Rocket 4.4 05:22:35 67° WNW 05:22:35 67° WNW 05:28:34 10° N
Atlas Centaur 2 3.0 05:28:50 35° SSE 05:28:50 35° SSE 05:33:21 10° ESE
MOS 1-B 4.2 05:32:16 10° NNE 05:38:05 84° WNW 05:40:00 45° SSW
Okean O Rocket 2.3 05:35:04 10° NNE 05:39:18 50° E 05:41:31 25° SSE
Cosmos 614 Rocket 4.2 05:45:58 50° WNW 05:45:58 50° WNW 05:50:42 10° N
Cosmos 1943 3.3 05:40:35 10° NNW 05:46:18 75° ENE 05:51:57 10° SSE
SL-8 R/B 3.6 05:47:29 67° W 05:47:58 74° NNW 05:52:47 10° NE
Cosmos 1932 4.5 05:47:00 35° SSW 05:50:01 90° WNW 05:56:37 10° NNE
ADEOS II 2.0 05:45:53 10° N 05:51:05 63° WNW 05:52:23 47° SW
Cosmos 2266 Rocket 3.9 05:48:01 10° N 05:54:27 79° W 06:00:50 10° S
Cosmos 220 Rocket 3.8 05:54:17 65° SW 05:54:49 78° WNW 05:59:08 10° NNE
Cosmos 2263 Rocket 2.1 05:53:09 40° SW 05:55:12 72° WNW 06:00:55 10° NNE
Cosmos 1437 Rocket 2.8 05:54:32 10° N 05:58:28 81° E 06:02:28 10° S
DELTA 2 R/B (1) 3.7 06:00:15 35° WNW 06:02:33 66° N 06:08:06 10° E
Cosmos 2084 3.1 06:02:50 62° WSW 06:02:53 62° WSW 06:06:49 10° SSE
GPS 2-05 Rocket1 2.8 06:13:45 49° S 06:13:45 49° S 06:16:43 10° ESE
Meteor PRIRODA 3.9 06:10:27 10° NNE 06:14:07 70° E 06:17:48 10° S
Tiangong 1 2.3 06:14:03 25° N 06:14:31 27° N 06:16:52 10° ENE
Meteor 1-19 Rocket 4.4 06:18:58 10° S 06:24:50 80° E 06:30:41 10° NNE
TELKOM 3 4.0 06:25:34 32° NNW 06:25:34 32° NNW 06:27:27 10° NNE
ISS -2.2 06:27:08 21° SSW 06:27:08 21° SSW 06:28:56 10° S
Cosmos 1607 4.4 06:22:56 24° WSW 06:26:18 43° NW 06:32:20 10° NNE
Meteor 2-4 Rocket 4.4 06:22:22 10° S 06:27:44 57° E 06:33:18 10° NNE
Abrixas rocket 3.9 06:27:43 18° NW 06:28:37 21° NNW 06:31:09 10° NNE
ATLAS 3B R/B 3.0 06:22:04 10° SSW 06:29:32 82° ESE 06:36:45 10° NNE
CZ-4B R/B 3.1 06:24:44 10° N 06:29:56 61° WNW 06:35:10 10° SSW
PSLV R/B 4.3 06:26:52 10° N 06:30:33 30° WNW 06:32:05 23° WSW
Cosmos 332 Rocket 3.7 06:26:51 10° NNW 06:31:41 89° W 06:36:28 10° SSE
Meteor 1-4 Rocket 2.9 06:28:56 10° N 06:32:24 65° E 06:35:49 10° SSE
Cosmos 1975 Rocket 4.1 06:31:36 23° W 06:32:31 25° WNW 06:36:13 10° NNW
Cosmos 1544 Rocket 3.5 06:29:32 10° NNW 06:33:49 63° W 06:38:07 10° S
Cosmos 1500 4.2 06:32:12 10° NW 06:35:13 23° W 06:35:14 23° W
Cosmos 371 Rocket 3.3 06:32:29 10° NNW 06:37:23 87° ENE 06:42:14 10° SSE
Okean-O 3.4 06:34:43 10° NNE 06:39:05 55° E 06:43:25 10° S
Cosmos 1975 3.4 06:36:16 10° NNW 06:40:00 35° W 06:43:44 10° SSW
Cosmos 1455 Rocket 3.0 06:37:35 10° NNW 06:41:50 57° W 06:46:03 10° S
ATLAS CENTAUR R/B 4.2 06:44:01 10° SSE 06:46:24 15° ESE 06:48:43 10° ENE
CZ-2C R/B 3.8 06:50:18 10° S 06:54:51 56° W 06:59:31 10° NNW
Meteor 2-9 Rocket 4.3 06:49:32 10° N 06:54:58 82° E 07:00:32 10° S
IDEFIX/ARIANE 42P 4.2 06:50:45 10° NNE 06:55:41 40° E 07:00:36 10° SSE
SKYMED 2 4.4 06:51:32 10° SSE 06:55:46 56° ENE 07:00:02 10° N
EO 1 Del DPAF 3.2 06:52:07 10° SSE 06:55:56 84° W 06:59:46 10° NNW
Cosmos 1536 Rocket 3.8 06:53:36 10° SSW 06:57:43 43° W 07:01:53 10° N
COSMOS 2406 4.4 06:52:19 10° N 06:57:53 47° ENE 07:03:24 10° SE
USA 215 4.0 06:51:46 10° ESE 06:58:05 55° NE 07:04:26 10° NW
Cosmos 1486 Rocket 4.1 06:53:21 10° SSW 06:58:37 84° ESE 07:03:52 10° NNE
Meteor 1-31 Rocket 3.5 06:57:55 10° N 07:01:25 33° WNW 07:04:52 10° SW
Cosmos 468 Rocket 4.1 06:56:44 10° NNW 07:01:59 61° WSW 07:07:11 10° S
CZ-2C R/B 4.3 06:57:58 10° NNE 07:02:07 32° E 07:06:17 10° SSE
Cosmos 841 Rocket 4.4 06:57:28 10° N 07:02:34 55° ENE 07:07:40 10° SSE
GEOS 3 Rocket 3.8 06:57:57 10° SE 07:03:06 80° NE 07:08:24 10° NNW
Cosmos 1745 Rocket 4.2 06:57:06 10° N 07:03:30 86° E 07:09:49 10° S
Cosmos 1553 Rocket 4.0 07:01:11 10° SSW 07:07:16 61° W 07:13:18 10° N
Cosmos 2278 Rocket 4.1 07:03:35 10° SSE 07:08:36 34° ESE 07:13:40 10° NE
Okean 1-7 Rocket 4.0 07:07:32 10° S 07:12:00 71° E 07:16:31 10° NNE
NOSS 3-2 (A) 3.8 07:07:08 10° SSW 07:12:57 70° ESE 07:19:20 10° NE
Cosmos 724 4.4 07:08:23 10° SSW 07:14:31 81° WNW 07:20:35 10° NNE
Okean O Rocket 3.4 07:13:11 10° NW 07:15:13 13° WNW 07:17:14 10° W
Cosmos 1515 4.0 07:11:46 10° S 07:15:32 72° E 07:19:21 10° NNE
Meteor 1-23 Rocket 4.2 07:10:11 10° SSW 07:15:43 75° W 07:21:18 10° N
Radarsat Rocket 4.2 07:10:16 10° NNE 07:16:15 88° ESE 07:22:47 10° SSW
Atlas Centaur 2 2.6 07:12:14 10° WSW 07:17:19 39° S 07:21:25 10° ESE
